Eastsound, WA

6:51 PM PDT on March 26, 2017 (GMT -0700)
Orcas Island

Weather History for KORS - October, 2011

Change the Weather History Date:

Monday, October 17, 2011

  Actual Average (KFHR) Record (KFHR)
Temperature  
Mean Temperature 50 °F -  
Max Temperature 53 °F 55 °F 63 °F (2002)
Min Temperature 46 °F 41 °F 37 °F (1999)
Degree Days  
Heating Degree Days 16    
Moisture  
Dew Point 45 °F    
Average Humidity 87    
Maximum Humidity 93    
Minimum Humidity 72    
Precipitation  
Precipitation 0.00 in - - ()
Sea Level Pressure  
Sea Level Pressure 30.39 in    
Wind  
Wind Speed 5 mph (NNW)    
Max Wind Speed 14 mph    
Max Gust Speed -    
Visibility 10 miles    
Events      
Averages and records for this station are not official NWS values.
T = Trace of Precipitation, MM = Missing Value Source: NWS Daily Summary

Daily Weather History Graph

Daily Weather History Graph

Search for Another Location

Airport or City:

Trip Planner

Search our weather history database for the weather conditions in past years. The results will help you decide how hot, cold, wet, or windy it might be!

Date:

Astronomy

Oct. 17, 2011 Rise Set
Actual Time 7:34 AM PDT 6:18 PM PDT
Civil Twilight 7:02 AM PDT 6:50 PM PDT
Nautical Twilight 6:26 AM PDT 7:26 PM PDT
Astronomical Twilight 5:49 AM PDT 8:03 PM PDT
Moon 9:44 PM PDT (10/17) 1:06 PM PDT (10/17)
Length of Visible Light 11h 47m
Length of Day
10h 43m
Waning Gibbous, 73% of the Moon is Illuminated
Oct 17
Waning Gibbous
Oct 19
Last Quarter
Oct 26
New
Nov 2
First Quarter
Nov 10
Full

Hourly Weather History & Observations

Time (PDT) Temp. Windchill Dew Point Humidity Pressure Visibility Wind Dir Wind Speed Gust Speed Precip Events Conditions
12:15 AM 46.4 °F 44.3 °F 44.6 °F 93% 30.31 in 10.0 mi SSW 4.6 mph - N/A   Clear
12:35 AM 46.4 °F 43.5 °F 44.6 °F 93% 30.32 in 10.0 mi SSW 5.8 mph - N/A   Clear
12:55 AM 46.4 °F 43.5 °F 44.6 °F 93% 30.32 in 10.0 mi South 5.8 mph - N/A   Clear
1:15 AM 46.4 °F 42.9 °F 44.6 °F 93% 30.32 in 10.0 mi South 6.9 mph - N/A   Clear
1:35 AM 46.4 °F 42.4 °F 44.6 °F 93% 30.34 in 10.0 mi South 8.1 mph - N/A   Clear
1:55 AM 46.4 °F 41.5 °F 44.6 °F 93% 30.33 in 10.0 mi South 10.4 mph - N/A   Clear
2:15 AM 48.2 °F - 44.6 °F 87% 30.34 in 10.0 mi SSW 13.8 mph - N/A   Clear
2:35 AM 48.2 °F - 44.6 °F 87% 30.35 in 10.0 mi South 9.2 mph - N/A   Clear
2:55 AM 48.2 °F - 44.6 °F 87% 30.35 in 10.0 mi South 8.1 mph - N/A   Clear
3:15 AM 48.2 °F - 44.6 °F 87% 30.36 in 10.0 mi South 8.1 mph - N/A   Scattered Clouds
3:35 AM 48.2 °F - 44.6 °F 87% 30.37 in 10.0 mi South 6.9 mph - N/A   Mostly Cloudy
3:55 AM 48.2 °F - 44.6 °F 87% 30.37 in 10.0 mi South 10.4 mph - N/A   Overcast
4:55 AM 48.2 °F - 44.6 °F 87% 30.38 in 10.0 mi South 3.5 mph - N/A   Partly Cloudy
5:15 AM 48.2 °F - 44.6 °F 87% 30.38 in 10.0 mi Calm Calm - N/A   Partly Cloudy
5:35 AM 48.2 °F - 44.6 °F 87% 30.39 in 10.0 mi Calm Calm - N/A   Partly Cloudy
5:55 AM 46.4 °F - 44.6 °F 93% 30.39 in 10.0 mi Calm Calm - N/A   Partly Cloudy
6:15 AM 46.4 °F - 44.6 °F 93% 30.39 in 10.0 mi Calm Calm - N/A   Clear
6:35 AM 46.4 °F - 44.6 °F 93% 30.39 in 10.0 mi Calm Calm - N/A   Clear
6:55 AM 46.4 °F - 44.6 °F 93% 30.40 in 10.0 mi Calm Calm - N/A   Partly Cloudy
7:15 AM 46.4 °F - 44.6 °F 93% 30.39 in 10.0 mi Calm Calm - N/A   Scattered Clouds
7:35 AM 46.4 °F 45.2 °F 44.6 °F 93% 30.39 in 10.0 mi SSW 3.5 mph - N/A   Partly Cloudy
7:55 AM 46.4 °F 44.3 °F 44.6 °F 93% 30.40 in 10.0 mi SSW 4.6 mph - N/A   Clear
8:15 AM 46.4 °F - 44.6 °F 93% 30.40 in 10.0 mi Calm Calm - N/A   Clear
8:35 AM 46.4 °F - 44.6 °F 93% 30.41 in 10.0 mi Calm Calm - N/A   Clear
8:55 AM 46.4 °F - 44.6 °F 93% 30.42 in 10.0 mi Calm Calm - N/A   Clear
9:15 AM 48.2 °F - 44.6 °F 87% 30.42 in 10.0 mi Calm Calm - N/A   Clear
9:35 AM 50.0 °F - 46.4 °F 87% 30.43 in 10.0 mi Calm Calm - N/A   Clear
9:55 AM 50.0 °F - 44.6 °F 82% 30.43 in 10.0 mi NNE 4.6 mph - N/A   Partly Cloudy
10:15 AM 50.0 °F - 46.4 °F 87% 30.43 in 10.0 mi NE 3.5 mph - N/A   Partly Cloudy
10:35 AM 50.0 °F - 46.4 °F 87% 30.44 in 10.0 mi NE 4.6 mph - N/A   Clear
10:55 AM 50.0 °F - 46.4 °F 87% 30.44 in 10.0 mi NE 3.5 mph - N/A   Clear
11:15 AM 50.0 °F - 44.6 °F 82% 30.44 in 10.0 mi NE 4.6 mph - N/A   Clear
11:35 AM 50.0 °F - 44.6 °F 82% 30.44 in 10.0 mi ENE 3.5 mph - N/A   Clear
11:55 AM 50.0 °F - 44.6 °F 82% 30.44 in 10.0 mi North 4.6 mph - N/A   Clear
12:15 PM 50.0 °F - 46.4 °F 87% 30.44 in 10.0 mi North 5.8 mph - N/A   Clear
12:35 PM 50.0 °F - 46.4 °F 87% 30.44 in 10.0 mi North 4.6 mph - N/A   Clear
12:55 PM 50.0 °F - 46.4 °F 87% 30.43 in 10.0 mi North 4.6 mph - N/A   Clear
1:15 PM 51.8 °F - 44.6 °F 76% 30.42 in 10.0 mi North 4.6 mph - N/A   Clear
1:35 PM 51.8 °F - 44.6 °F 76% 30.42 in 10.0 mi North 3.5 mph - N/A   Clear
1:55 PM 51.8 °F - 46.4 °F 82% 30.41 in 10.0 mi NNW 4.6 mph - N/A   Clear
2:15 PM 51.8 °F - 46.4 °F 82% 30.41 in 10.0 mi NNW 5.8 mph - N/A   Clear
2:35 PM 51.8 °F - 46.4 °F 82% 30.40 in 10.0 mi North 4.6 mph - N/A   Clear
3:15 PM 53.6 °F - 44.6 °F 72% 30.39 in 10.0 mi NNW 4.6 mph - N/A   Clear
3:35 PM 53.6 °F - 46.4 °F 77% 30.39 in 10.0 mi NNW 5.8 mph - N/A   Clear
3:55 PM 51.8 °F - 46.4 °F 82% 30.38 in 10.0 mi NNW 4.6 mph - N/A   Clear
4:15 PM 53.6 °F - 46.4 °F 77% 30.38 in 10.0 mi NNW 4.6 mph - N/A   Clear
4:35 PM 51.8 °F - 46.4 °F 82% 30.38 in 10.0 mi Calm Calm - N/A   Clear
4:55 PM 51.8 °F - 46.4 °F 82% 30.39 in 10.0 mi NNW 3.5 mph - N/A   Clear
5:15 PM 50.0 °F - 46.4 °F 87% 30.38 in 10.0 mi Calm Calm - N/A   Clear
5:35 PM 50.0 °F - 46.4 °F 87% 30.36 in 10.0 mi Calm Calm - N/A   Clear
5:55 PM 50.0 °F - 46.4 °F 87% 30.37 in 10.0 mi Calm Calm - N/A   Clear
6:15 PM 48.2 °F - 46.4 °F 93% 30.37 in 10.0 mi Calm Calm - N/A   Clear
6:35 PM 48.2 °F - 46.4 °F 93% 30.37 in 10.0 mi Calm Calm - N/A   Clear
7:15 PM 46.4 °F - 44.6 °F 93% 30.36 in 10.0 mi Calm Calm - N/A   Clear
7:35 PM 46.4 °F - 44.6 °F 93% 30.37 in 10.0 mi Calm Calm - N/A   Clear
7:55 PM 46.4 °F - 46.4 °F 100% 30.37 in 9.0 mi North - - N/A   Clear
8:15 PM 46.4 °F - 46.4 °F 100% 30.37 in 10.0 mi Calm Calm - N/A   Clear
8:35 PM 46.4 °F - 46.4 °F 100% 30.37 in 10.0 mi Calm Calm - N/A   Clear
8:55 PM 46.4 °F - 46.4 °F 100% 30.37 in 10.0 mi Calm Calm - N/A   Clear
9:15 PM 48.2 °F - 46.4 °F 93% 30.36 in 10.0 mi Calm Calm - N/A   Clear
9:35 PM 48.2 °F - 46.4 °F 93% 30.36 in 10.0 mi Calm Calm - N/A   Clear
9:55 PM 46.4 °F - 44.6 °F 93% 30.36 in 9.0 mi Calm Calm - N/A   Clear
10:15 PM 46.4 °F - 44.6 °F 93% 30.36 in 8.0 mi Calm Calm - N/A   Clear
10:35 PM 46.4 °F - 44.6 °F 93% 30.35 in 10.0 mi Calm Calm - N/A   Clear
10:55 PM 46.4 °F - 44.6 °F 93% 30.35 in 10.0 mi Calm Calm - N/A   Clear
11:15 PM 46.4 °F - 44.6 °F 93% 30.35 in 8.0 mi Calm Calm - N/A   Scattered Clouds
11:35 PM 46.4 °F - 44.6 °F 93% 30.35 in 10.0 mi Calm Calm - N/A   Mostly Cloudy
11:55 PM 50.0 °F - 48.2 °F 94% 30.35 in 10.0 mi North 5.8 mph - N/A   Mostly Cloudy